[[[{"header":{"parameterUnit":"kt","parameterCategory":2,"dx":1,"dy":1,"la1":30.253999710083008,"la2":30.299108505249023,"lo1":-89.0895004272461,"lo2":-89.04439544677734,"nx":28,"ny":28,"refTime":"2022-10-05T21:00:00:Z","depth":"0","parameterNumber":2,"parameterNumberName":"U-component_of_CURRENTS"},"data":[0.125,0.1271,0.1299,0.1301,0.1298,0.1273,0.1259,0.123,0.117,0.1026,0.0898,0.0806,0.0495,-0.0214,-0.0568,-0.0567,-0.0571,-0.0622,-0.055,-0.0453,-0.0422,-0.0392,-0.0424,-0.0693,-0.0694,-0.0711,-0.0712,-0.0714,0.1251,0.1281,0.1304,0.131,0.13,0.1293,0.1252,0.1229,0.1135,0.1004,0.0857,0.0648,0.042,0.0247,-0.0015,-0.0142,-0.0071,-0.0218,-0.0267,-0.0187,0.0027,0.0008,-0.0174,-0.0173,-0.0173,-0.0173,-0.0173,-0.0173,0.1265,0.1281,0.1305,0.1316,0.1304,0.1286,0.1267,0.1203,0.1114,0.0969,0.0841,0.0691,0.0492,0.0401,0.0358,0.0193,0.0277,0.0151,0.0098,0.0088,0.0114,0.0395,0.0259,0.026,0.0261,0.0261,0.0262,0,0.1268,0.1284,0.1295,0.1309,0.13,0.1279,0.1236,0.1201,0.1099,0.1001,0.0843,0.0732,0.058,0.0483,0.0437,0.0432,0.0378,0.0437,0.0328,0.022,0.0198,0.0262,0.058,0.0429,0.043,0.0432,0.0433,0.0433,0.1267,0.1278,0.1292,0.1296,0.1298,0.1271,0.1246,0.118,0.113,0.0969,0.0918,0.0774,0.0666,0.0556,0.0549,0.0538,0.0506,0.0477,0.0529,0.0438,0.0393,0.0378,0.0431,0.0452,0.045,0.0448,0.0446,0,0.1263,0.128,0.1289,0.1284,0.1276,0.1262,0.1212,0.1171,0.1096,0.1002,0.0964,0.0834,0.0741,0.0713,0.0662,0.0675,0.0591,0.0651,0.0626,0.0627,0.0505,0.0461,0.0239,0.028,0.0595,0.0594,0.0592,0,0.1266,0.1269,0.1287,0.1292,0.1272,0.1257,0.1209,0.1173,0.1096,0.103,0.0969,0.0893,0.0847,0.0788,0.0815,0.0765,0.0755,0.0789,0.0793,0.0764,0.0761,0.0656,0.0611,0.0803,0.0803,0.0803,0.0804,0,0.127,0.1282,0.1289,0.129,0.128,0.1262,0.1241,0.1181,0.1144,0.1051,0.1002,0.0937,0.0892,0.0873,0.0874,0.091,0.0807,0.0862,0.0836,0.0836,0.0778,0.0776,0.0547,0.0804,0.0805,0.0805,0.0805,0,0.1281,0.1294,0.1303,0.1294,0.1289,0.128,0.1224,0.1203,0.113,0.1102,0.1048,0.1033,0.0979,0.1021,0.0963,0.0994,0.1,0.1003,0.1001,0.0968,0.1023,0.0905,0.0815,0.0706,0.102,0.1021,0.1023,0,0.1278,0.1299,0.1307,0.1305,0.1308,0.1294,0.127,0.1241,0.1213,0.1162,0.1145,0.1121,0.1162,0.1153,0.1117,0.1122,0.1085,0.1138,0.1086,0.1084,0.1035,0.0961,0.0909,0.0845,0.1042,0.104,0.1039,0,0.1278,0.1314,0.1315,0.1312,0.1311,0.1313,0.1293,0.1264,0.123,0.1229,0.1173,0.1205,0.1193,0.1201,0.1225,0.1188,0.1123,0.1211,0.121,0.1168,0.1031,0.0995,0.0979,0.1121,0.1118,0.1116,0.1054,0,0.1293,0.1303,0.1315,0.1309,0.1311,0.132,0.131,0.1302,0.1293,0.1278,0.1263,0.1294,0.1286,0.1302,0.133,0.1277,0.1291,0.1307,0.1293,0.1263,0.1248,0.1235,0.1395,0.1395,0.1396,0.1397,0,0,0.1271,0.129,0.1297,0.1304,0.1305,0.1308,0.1306,0.1308,0.1324,0.1308,0.1322,0.1339,0.1365,0.1349,0.1351,0.1385,0.1367,0.1356,0.13,0.1289,0.1279,0.1261,0.1248,0.1398,0.1398,0.1399,0.1399,0,0.1273,0.1284,0.1289,0.1295,0.1307,0.1309,0.1308,0.132,0.1314,0.1329,0.1341,0.1346,0.1387,0.1382,0.139,0.1398,0.1378,0.1413,0.1354,0.1308,0.1297,0.1286,0.1266,0.1254,0.1401,0.1401,0.1401,0,0.1251,0.1259,0.1263,0.128,0.1293,0.1296,0.1298,0.1315,0.1306,0.1335,0.1338,0.1362,0.1389,0.1402,0.141,0.1408,0.1379,0.1417,0.1414,0.1387,0.134,0.1327,0.1317,0.1447,0.1447,0.1446,0,0,0.1241,0.1249,0.1258,0.1278,0.1283,0.1295,0.1305,0.1304,0.1324,0.1331,0.1341,0.136,0.138,0.1385,0.1412,0.143,0.141,0.1419,0.1417,0.1415,0.1387,0.134,0.1329,0.1446,0.1446,0.1446,0,0,0.1239,0.1245,0.1241,0.1263,0.1273,0.1295,0.1311,0.1307,0.1328,0.1328,0.134,0.1345,0.1363,0.1381,0.1372,0.1387,0.1401,0.1404,0.1358,0.1356,0.1354,0.1311,0.1361,0,0,0,0,0,0.1226,0.1244,0.124,0.1245,0.1276,0.1298,0.1303,0.1307,0.1299,0.1304,0.1324,0.1317,0.1377,0.137,0.1378,0.1355,0.1438,0.1439,0.1441,0.1388,0.1385,0.1383,0,0,0,0,0,0,0.1228,0.1233,0.124,0.1262,0.1269,0.1297,0.1289,0.1291,0.1298,0.1295,0.1316,0.1319,0.1329,0.1366,0.1373,0.1351,0.1359,0.1438,0.144,0.1441,0.1387,0.1385,0.1383,0,0,0,0,0,0.123,0.1234,0.1278,0.1262,0.1268,0.1281,0.1287,0.1289,0.1292,0.1315,0.1317,0.1292,0.133,0.1336,0.137,0.1347,0.1354,0.1356,0.1439,0.144,0.1441,0.1386,0,0,0,0,0,0,0.1231,0.1241,0.128,0.1282,0.1247,0.1279,0.1282,0.1287,0.1311,0.1313,0.1292,0.129,0.1331,0.1335,0.134,0.1344,0.135,0.1353,0.1354,0.144,0.1441,0.1441,0,0,0,0,0,0,0.1239,0.1243,0.1281,0.1262,0.1263,0.1277,0.1279,0.1311,0.1311,0.1287,0.1286,0.1291,0.1321,0.1335,0.1339,0.1389,0.1347,0.1349,0.1351,0.1352,0.144,0.1441,0,0,0,0,0,0,0.1241,0.1245,0.1261,0.1262,0.1263,0.1296,0.1306,0.1335,0.13,0.1286,0.1296,0.1294,0.1321,0.1324,0.1338,0.1387,0.1389,0.1347,0.1349,0.135,0.1351,0,0,0,0,0,0,0,0.1243,0.1211,0.1261,0.1262,0.1262,0.1309,0.131,0.1311,0.1299,0.1298,0.1296,0.1295,0.1332,0.1335,0.1338,0.1385,0,0,0.1347,0.1348,0,0,0,0,0,0,0,0,0.121,0.1211,0.1262,0.1262,0.1263,0.1309,0.131,0.1311,0.1299,0.1298,0.1297,0.1295,0.1333,0.1335,0.1337,0,0,0,0,0,0,0,0,0,0,0,0,0,0,0,0.1262,0.1262,0,0.1309,0.131,0.1311,0.1299,0.1298,0.1297,0.1296,0.1333,0.1335,0.1337,0,0,0,0,0,0,0,0,0,0,0,0,0,0,0,0,0,0,0,0,0,0,0,0,0,0,0,0,0,0,0,0,0,0,0,0,0,0,0,0,0,0,0,0,0,0,0,0,0,0,0,0,0,0,0,0,0,0,0,0,0,0,0,0,0,0,0,0,0]}],[{"header":{"parameterUnit":"kt","parameterCategory":2,"dx":1,"dy":1,"la1":30.253999710083008,"la2":30.299108505249023,"lo1":-89.0895004272461,"lo2":-89.04439544677734,"nx":28,"ny":28,"refTime":"2022-10-05T21:00:00:Z","depth":"0","parameterNumber":3,"parameterNumberName":"V-component_of_CURRENTS"},"data":[-0.1355,-0.1413,-0.1447,-0.1521,-0.1556,-0.1599,-0.1623,-0.1653,-0.1714,-0.1774,-0.182,-0.1854,-0.1126,0.0222,0.1215,0.1386,0.1958,0.1872,0.2204,0.1675,0.161,0.1549,0.1569,0.2178,0.2181,0.3106,0.3116,0.3124,-0.1333,-0.1375,-0.1427,-0.1506,-0.1546,-0.1568,-0.1623,-0.1649,-0.17,-0.1763,-0.1805,-0.1691,-0.1239,-0.0801,-0.0106,0.0378,0.0546,0.0742,0.0956,0.1144,0.0193,0.0159,0.0478,0.0478,0.0478,0.0477,0.0477,0.0476,-0.1312,-0.1345,-0.1416,-0.1486,-0.153,-0.1576,-0.1605,-0.1657,-0.1694,-0.1722,-0.1737,-0.1741,-0.1449,-0.119,-0.0947,-0.0365,-0.0394,-0.0154,0.0059,0.008,0.0301,-0.084,-0.0671,-0.0672,-0.0673,-0.0674,-0.0674,0,-0.1321,-0.1348,-0.1409,-0.1482,-0.1527,-0.158,-0.1629,-0.1644,-0.1678,-0.1688,-0.1693,-0.1662,-0.1489,-0.1329,-0.1093,-0.0946,-0.0437,-0.0736,-0.0313,-0.0043,0.0022,0.0278,-0.0857,-0.066,-0.0661,-0.0662,-0.0662,-0.0663,-0.1319,-0.1357,-0.146,-0.1498,-0.1542,-0.1588,-0.1618,-0.165,-0.1669,-0.1659,-0.1653,-0.1544,-0.1511,-0.1259,-0.1147,-0.0955,-0.064,-0.0752,-0.0856,-0.0479,-0.0245,-0.0198,0.0008,-0.0672,-0.0671,-0.067,-0.0669,0,-0.1319,-0.139,-0.1464,-0.1557,-0.158,-0.1604,-0.1658,-0.1668,-0.1667,-0.166,-0.1643,-0.1598,-0.1479,-0.1351,-0.1158,-0.1118,-0.0755,-0.0931,-0.0885,-0.0862,-0.0543,-0.0355,0.0043,0.0314,-0.0841,-0.0841,-0.0841,0,-0.1365,-0.1406,-0.1512,-0.1544,-0.1589,-0.1642,-0.166,-0.1677,-0.1675,-0.1679,-0.1652,-0.1632,-0.1524,-0.1411,-0.1319,-0.1187,-0.1126,-0.1147,-0.112,-0.1077,-0.108,-0.0721,-0.0529,-0.1064,-0.1066,-0.1068,-0.1069,0,-0.1383,-0.1468,-0.1525,-0.1555,-0.1648,-0.1659,-0.1688,-0.1704,-0.1717,-0.1685,-0.1671,-0.1613,-0.1574,-0.1464,-0.138,-0.142,-0.119,-0.1228,-0.1179,-0.118,-0.1098,-0.11,-0.0563,-0.1072,-0.1073,-0.1073,-0.1074,0,-0.1428,-0.1485,-0.1545,-0.1631,-0.1647,-0.1665,-0.1699,-0.1719,-0.1714,-0.1714,-0.1693,-0.1684,-0.1636,-0.1651,-0.1506,-0.1575,-0.1482,-0.1427,-0.1416,-0.1491,-0.1508,-0.1275,-0.1109,-0.0715,-0.1292,-0.1294,-0.1297,0,-0.1444,-0.1508,-0.1557,-0.1602,-0.1649,-0.1686,-0.1704,-0.1727,-0.1739,-0.1731,-0.1726,-0.172,-0.1748,-0.174,-0.1696,-0.1646,-0.1561,-0.1676,-0.1484,-0.1478,-0.1571,-0.1441,-0.1376,-0.1154,-0.133,-0.1326,-0.1324,0,-0.1459,-0.157,-0.1564,-0.1614,-0.1665,-0.1685,-0.1698,-0.1739,-0.1749,-0.1747,-0.1748,-0.1761,-0.1753,-0.1772,-0.1788,-0.1743,-0.1612,-0.174,-0.1737,-0.1663,-0.141,-0.1476,-0.146,-0.1609,-0.1606,-0.1604,-0.135,0,-0.1591,-0.1605,-0.1597,-0.1657,-0.1673,-0.1683,-0.1743,-0.1738,-0.1762,-0.1796,-0.1778,-0.1792,-0.1809,-0.1804,-0.1844,-0.1789,-0.1762,-0.1786,-0.1847,-0.1759,-0.1655,-0.1634,-0.1896,-0.1897,-0.1898,-0.1899,0,0,-0.1605,-0.1641,-0.1665,-0.1688,-0.1718,-0.176,-0.1784,-0.1803,-0.1842,-0.185,-0.1864,-0.1869,-0.1897,-0.1909,-0.1897,-0.1885,-0.1828,-0.1944,-0.1798,-0.1787,-0.1777,-0.1674,-0.1653,-0.19,-0.1901,-0.1901,-0.1901,0,-0.1678,-0.1674,-0.1671,-0.1702,-0.1749,-0.1795,-0.1789,-0.1846,-0.187,-0.1869,-0.1917,-0.1906,-0.1928,-0.1963,-0.1986,-0.1899,-0.1913,-0.1893,-0.1881,-0.1808,-0.1795,-0.1785,-0.1681,-0.1662,-0.1903,-0.1903,-0.1903,0,-0.1744,-0.1779,-0.1773,-0.1808,-0.1842,-0.1873,-0.1925,-0.1929,-0.1956,-0.201,-0.2019,-0.2024,-0.2061,-0.2052,-0.2045,-0.2077,-0.1979,-0.2043,-0.2037,-0.2054,-0.1981,-0.1966,-0.1953,-0.2129,-0.213,-0.2131,0,0,-0.1793,-0.1784,-0.1858,-0.1831,-0.1848,-0.1913,-0.1923,-0.1966,-0.2,-0.2008,-0.2047,-0.207,-0.2085,-0.2098,-0.2104,-0.2081,-0.2053,-0.2073,-0.2062,-0.2054,-0.2065,-0.1991,-0.1976,-0.2135,-0.2135,-0.2135,0,0,-0.1827,-0.1898,-0.1927,-0.1903,-0.1941,-0.2018,-0.2002,-0.204,-0.205,-0.2052,-0.2128,-0.214,-0.2119,-0.214,-0.2179,-0.215,-0.2189,-0.2181,-0.2165,-0.2152,-0.2141,-0.2162,-0.2283,0,0,0,0,0,-0.1931,-0.1888,-0.1913,-0.192,-0.197,-0.1998,-0.2005,-0.2069,-0.2097,-0.208,-0.2112,-0.2175,-0.2177,-0.2214,-0.2218,-0.2214,-0.2181,-0.2172,-0.2165,-0.2135,-0.2121,-0.2109,0,0,0,0,0,0,-0.1935,-0.1942,-0.1916,-0.1988,-0.2,-0.1999,-0.2078,-0.2094,-0.2101,-0.2111,-0.2165,-0.2178,-0.2237,-0.2217,-0.2219,-0.2215,-0.2283,-0.2177,-0.217,-0.2164,-0.213,-0.2119,-0.2109,0,0,0,0,0,-0.1938,-0.1944,-0.2006,-0.1989,-0.2,-0.2077,-0.208,-0.2094,-0.2093,-0.2174,-0.2188,-0.2142,-0.2234,-0.2241,-0.2219,-0.2212,-0.2281,-0.2282,-0.2173,-0.2167,-0.2163,-0.2125,0,0,0,0,0,0,-0.194,-0.195,-0.2009,-0.2016,-0.2013,-0.2079,-0.209,-0.2094,-0.2157,-0.2171,-0.2157,-0.2164,-0.2232,-0.2237,-0.2242,-0.2209,-0.228,-0.2281,-0.2282,-0.2169,-0.2164,-0.2161,0,0,0,0,0,0,-0.1948,-0.1954,-0.2012,-0.2039,-0.2048,-0.2079,-0.209,-0.2088,-0.2157,-0.2135,-0.2144,-0.2159,-0.2228,-0.2234,-0.2238,-0.2232,-0.228,-0.228,-0.2281,-0.2281,-0.2165,-0.2162,0,0,0,0,0,0,-0.1952,-0.1957,-0.2037,-0.2044,-0.2053,-0.2122,-0.2079,-0.2125,-0.2181,-0.213,-0.2188,-0.2192,-0.2224,-0.2229,-0.2235,-0.2227,-0.2231,-0.228,-0.228,-0.228,-0.2281,0,0,0,0,0,0,0,-0.1955,-0.1902,-0.1978,-0.2049,-0.2057,-0.2072,-0.2074,-0.2075,-0.2182,-0.2185,-0.2188,-0.219,-0.2276,-0.2276,-0.2277,-0.2223,0,0,-0.228,-0.228,0,0,0,0,0,0,0,0,-0.1901,-0.1901,-0.1979,-0.198,-0.1982,-0.2073,-0.2074,-0.2075,-0.2182,-0.2185,-0.2187,-0.2189,-0.2276,-0.2277,-0.2277,0,0,0,0,0,0,0,0,0,0,0,0,0,0,0,-0.1979,-0.198,0,-0.2073,-0.2074,-0.2074,-0.2183,-0.2185,-0.2187,-0.2188,-0.2276,-0.2277,-0.2277,0,0,0,0,0,0,0,0,0,0,0,0,0,0,0,0,0,0,0,0,0,0,0,0,0,0,0,0,0,0,0,0,0,0,0,0,0,0,0,0,0,0,0,0,0,0,0,0,0,0,0,0,0,0,0,0,0,0,0,0,0,0,0,0,0,0,0,0,0]}]],[[{"header":{"parameterUnit":"kt","parameterCategory":2,"dx":1,"dy":1,"la1":30.253999710083008,"la2":30.299108505249023,"lo1":-89.0895004272461,"lo2":-89.04439544677734,"nx":28,"ny":28,"refTime":"2022-10-05T21:00:00:Z","depth":"2","parameterNumber":2,"parameterNumberName":"U-component_of_CURRENTS"},"data":[-0.1604,-0.1591,-0.1621,-0.1602,-0.1615,-0.1591,-0.1604,-0.166,-0.1746,-0.1855,-0.1851,-0.2037,-0.1739,-0.1439,-0.1237,-0.1022,-0.0994,-0.0908,-0.1234,-0.1262,-0.128,-0.1175,-0.1158,0,0,0,0,0,-0.1666,-0.1685,-0.1699,-0.1716,-0.1738,-0.1773,-0.1837,-0.1855,-0.1905,-0.2066,-0.2154,-0.19,-0.1755,-0.1503,-0.1215,-0.1108,-0.1045,-0.0961,-0.0944,-0.0966,-0.0984,-0.0955,-0.0778,-0.0777,-0.0775,-0.0774,0,0,-0.1787,-0.1782,-0.1811,-0.1816,-0.1847,-0.189,-0.1878,-0.1971,-0.2025,-0.212,-0.22,-0.2139,-0.1977,-0.1676,-0.1479,-0.1261,-0.1362,-0.1253,-0.126,-0.1269,-0.1255,-0.1258,-0.1158,-0.1159,-0.116,-0.1161,-0.1162,0,-0.1892,-0.1905,-0.1917,-0.1933,-0.1939,-0.1968,-0.1998,-0.2033,-0.2107,-0.2148,-0.2181,-0.2154,-0.2008,-0.1833,-0.1648,-0.1514,-0.1451,-0.1387,-0.1554,-0.1342,-0.1346,-0.1339,-0.1351,-0.1264,-0.1266,-0.1268,-0.1269,-0.1269,-0.2001,-0.1992,-0.2028,-0.2031,-0.2029,-0.2028,-0.2041,-0.2085,-0.2115,-0.2165,-0.2169,-0.2114,-0.2064,-0.1891,-0.1751,-0.1602,-0.1592,-0.1433,-0.1406,-0.1566,-0.1557,-0.1563,-0.1568,-0.129,-0.1287,-0.1285,-0.1283,0,-0.2055,-0.2089,-0.2079,-0.2112,-0.2116,-0.2097,-0.2123,-0.2134,-0.2149,-0.2151,-0.214,-0.2126,-0.2037,-0.1937,-0.1809,-0.1744,-0.164,-0.1597,-0.1523,-0.15,-0.1572,-0.1576,-0.1521,-0.152,-0.1519,-0.1518,-0.1517,0,-0.2145,-0.2124,-0.2171,-0.2159,-0.2149,-0.217,-0.2154,-0.2151,-0.2153,-0.2156,-0.212,-0.2104,-0.1991,-0.1927,-0.1832,-0.1716,-0.1729,-0.1626,-0.1611,-0.1537,-0.1529,-0.1642,-0.1643,-0.1638,-0.1638,-0.1639,-0.1639,0,-0.219,-0.2202,-0.2195,-0.2192,-0.221,-0.2193,-0.2192,-0.2177,-0.2173,-0.2133,-0.2127,-0.2047,-0.1995,-0.1916,-0.1811,-0.1807,-0.1712,-0.1703,-0.1629,-0.1628,-0.1523,-0.1513,-0.1639,-0.1639,-0.1639,-0.1639,-0.1639,0,-0.2237,-0.2248,-0.2237,-0.2249,-0.2244,-0.2231,-0.2207,-0.2198,-0.2162,-0.2134,-0.2075,-0.2028,-0.1951,-0.1912,-0.1808,-0.1822,-0.1761,-0.1716,-0.1714,-0.1667,-0.1656,-0.1582,-0.152,-0.1692,-0.1692,-0.1693,-0.1693,0,-0.227,-0.2273,-0.2279,-0.2259,-0.2249,-0.2234,-0.2222,-0.2198,-0.2163,-0.2127,-0.205,-0.1987,-0.193,-0.1885,-0.1845,-0.1771,-0.1744,-0.1764,-0.1693,-0.1691,-0.1704,-0.1665,-0.1572,-0.1533,-0.1699,-0.1699,-0.1698,0,-0.2288,-0.2303,-0.2289,-0.2285,-0.2261,-0.2254,-0.2228,-0.22,-0.2186,-0.2114,-0.2078,-0.1959,-0.1922,-0.1871,-0.1811,-0.1781,-0.1754,-0.1747,-0.1745,-0.1774,-0.1704,-0.1677,-0.167,-0.1736,-0.1735,-0.1735,-0.1703,0,-0.2344,-0.2318,-0.2308,-0.2291,-0.2278,-0.2257,-0.2242,-0.2211,-0.2167,-0.2143,-0.2057,-0.1977,-0.1892,-0.1851,-0.1808,-0.1753,-0.1743,-0.1729,-0.1752,-0.1722,-0.1708,-0.1705,-0.1735,-0.1734,-0.1733,-0.1733,0,0,-0.2348,-0.2332,-0.2316,-0.2309,-0.2293,-0.227,-0.2258,-0.2232,-0.2175,-0.2149,-0.2123,-0.1972,-0.191,-0.1839,-0.1809,-0.1771,-0.1754,-0.1777,-0.1721,-0.172,-0.1719,-0.1706,-0.1704,-0.1732,-0.1731,-0.1731,-0.1731,0,-0.2374,-0.2336,-0.2323,-0.2311,-0.229,-0.2277,-0.2268,-0.2234,-0.2203,-0.2144,-0.2092,-0.2023,-0.1918,-0.1873,-0.1833,-0.177,-0.1756,-0.1727,-0.1742,-0.1717,-0.1717,-0.1717,-0.1704,-0.1702,-0.1729,-0.173,-0.173,0,-0.2389,-0.2375,-0.2358,-0.2331,-0.2307,-0.2296,-0.2278,-0.225,-0.2231,-0.2176,-0.2109,-0.2047,-0.1969,-0.19,-0.186,-0.1865,-0.177,-0.178,-0.178,-0.1784,-0.1759,-0.1757,-0.1756,-0.1781,-0.1782,-0.1783,0,0,-0.2404,-0.2381,-0.2366,-0.2335,-0.2325,-0.2293,-0.2273,-0.2256,-0.2212,-0.2183,-0.2131,-0.2058,-0.1992,-0.1956,-0.1893,-0.183,-0.1818,-0.1792,-0.1789,-0.1788,-0.1791,-0.1765,-0.1763,-0.1785,-0.1785,-0.1785,0,0,-0.2414,-0.2393,-0.2376,-0.2343,-0.2326,-0.2301,-0.2274,-0.2253,-0.2191,-0.2172,-0.2124,-0.2107,-0.2029,-0.1988,-0.203,-0.1898,-0.19,-0.189,-0.1951,-0.1947,-0.1944,-0.197,-0.2021,0,0,0,0,0,-0.2426,-0.2402,-0.2387,-0.2379,-0.2325,-0.231,-0.23,-0.2266,-0.2241,-0.2224,-0.2163,-0.2148,-0.1994,-0.2031,-0.2015,-0.1988,-0.1821,-0.1815,-0.1809,-0.187,-0.1866,-0.1863,0,0,0,0,0,0,-0.2423,-0.2414,-0.2388,-0.2365,-0.2353,-0.2309,-0.2291,-0.228,-0.2242,-0.2237,-0.2159,-0.2147,-0.2119,-0.2037,-0.2023,-0.1999,-0.2026,-0.1819,-0.1813,-0.1808,-0.1868,-0.1865,-0.1863,0,0,0,0,0,-0.242,-0.2413,-0.2335,-0.2364,-0.2353,-0.2309,-0.2291,-0.2281,-0.2238,-0.2194,-0.218,-0.2213,-0.212,-0.2104,-0.2029,-0.2006,-0.2035,-0.203,-0.1815,-0.1811,-0.1807,-0.1867,0,0,0,0,0,0,-0.2419,-0.2393,-0.2332,-0.2327,-0.2366,-0.231,-0.2299,-0.2283,-0.2195,-0.2183,-0.2248,-0.2245,-0.2121,-0.2108,-0.2096,-0.201,-0.2043,-0.2038,-0.2035,-0.1812,-0.1809,-0.1806,0,0,0,0,0,0,-0.2398,-0.239,-0.2329,-0.2333,-0.2329,-0.231,-0.2301,-0.2249,-0.2193,-0.2252,-0.2248,-0.2248,-0.2133,-0.2111,-0.2102,-0.2022,-0.2049,-0.2044,-0.2041,-0.2039,-0.1809,-0.1807,0,0,0,0,0,0,-0.2394,-0.2387,-0.2334,-0.233,-0.2326,-0.2268,-0.2261,-0.2199,-0.2221,-0.2255,-0.2221,-0.222,-0.2137,-0.2126,-0.2106,-0.203,-0.2024,-0.2049,-0.2046,-0.2043,-0.2042,0,0,0,0,0,0,0,-0.239,-0.2446,-0.2366,-0.2328,-0.2324,-0.2287,-0.2285,-0.2283,-0.2221,-0.2221,-0.2221,-0.222,-0.2077,-0.2072,-0.2067,-0.2037,0,0,-0.2049,-0.2047,0,0,0,0,0,0,0,0,-0.2448,-0.2447,-0.2366,-0.2365,-0.2365,-0.2287,-0.2285,-0.2284,-0.2221,-0.2221,-0.2221,-0.222,-0.2076,-0.2072,-0.2067,0,0,0,0,0,0,0,0,0,0,0,0,0,0,0,-0.2366,-0.2365,0,-0.2287,-0.2286,-0.2284,-0.2221,-0.2221,-0.2221,-0.2221,-0.2075,-0.2071,-0.2068,0,0,0,0,0,0,0,0,0,0,0,0,0,0,0,0,0,0,0,0,0,0,0,0,0,0,0,0,0,0,0,0,0,0,0,0,0,0,0,0,0,0,0,0,0,0,0,0,0,0,0,0,0,0,0,0,0,0,0,0,0,0,0,0,0,0,0,0,0]}],[{"header":{"parameterUnit":"kt","parameterCategory":2,"dx":1,"dy":1,"la1":30.253999710083008,"la2":30.299108505249023,"lo1":-89.0895004272461,"lo2":-89.04439544677734,"nx":28,"ny":28,"refTime":"2022-10-05T21:00:00:Z","depth":"2","parameterNumber":3,"parameterNumberName":"V-component_of_CURRENTS"},"data":[0.0353,0.0273,0.024,0.0099,0.0001,-0.0146,-0.0226,-0.0265,-0.0174,-0.0008,0.0231,0.0587,0.0921,0.1077,0.13,0.1487,0.1249,0.1429,0.1321,0.1156,0.1114,0.1163,0.124,0,0,0,0,0,0.037,0.0318,0.0246,0.014,0.005,-0.0014,-0.0135,-0.0188,-0.0217,-0.0064,0.0106,0.0424,0.0853,0.0941,0.1428,0.1633,0.1568,0.1377,0.1272,0.1238,0.1205,0.1267,0.1559,0.1557,0.1555,0.1553,0,0,0.0417,0.0378,0.0325,0.0214,0.013,0.0026,-0.0059,-0.0114,-0.0158,-0.0154,0.0002,0.0238,0.044,0.0952,0.1048,0.1168,0.12,0.1106,0.1085,0.106,0.1126,0.1187,0.1376,0.1374,0.1372,0.137,0.1369,0,0.0469,0.0435,0.0396,0.0297,0.0206,0.0123,0.0019,-0.0036,-0.0098,-0.0109,-0.0081,0.0028,0.0308,0.0616,0.0833,0.0895,0.0675,0.079,0.0429,0.0781,0.0834,0.0855,0.0836,0.0944,0.094,0.0936,0.0934,0.0932,0.0532,0.0495,0.0426,0.0378,0.0338,0.0235,0.0154,0.0092,0.0028,-0.002,-0.0064,-0.0047,0.0042,0.0183,0.0411,0.0558,0.0299,0.0671,0.0722,0.0443,0.0467,0.0462,0.0458,0.0882,0.0888,0.0893,0.0898,0,0.0566,0.0571,0.0504,0.045,0.0413,0.0332,0.0226,0.0153,0.01,0.0007,-0.002,-0.0021,-0.0001,0.0023,0.0047,0.0164,0.0225,0.0278,0.0439,0.0491,0.0428,0.0431,0.0476,0.0482,0.0487,0.0491,0.0494,0,0.0658,0.0595,0.0595,0.0552,0.0451,0.0423,0.03,0.0243,0.0164,0.0089,0.0074,0.0033,0.0033,0.0036,0.0061,0.0162,0.0068,0.0256,0.0286,0.0406,0.0432,0.0149,0.0156,0.0084,0.0084,0.0084,0.0084,0,0.0746,0.0689,0.0637,0.0607,0.0545,0.0477,0.0418,0.0322,0.026,0.0178,0.0136,0.0084,0.0057,0.0055,0.0083,0.0083,0.0082,0.0096,0.0259,0.0271,0.0424,0.0454,0.0084,0.0084,0.0084,0.0084,0.0084,0,0.0821,0.0804,0.073,0.0674,0.0638,0.057,0.0438,0.0379,0.0289,0.0248,0.0184,0.0165,0.0109,0.0135,0.0108,0.0108,0.0123,0.0137,0.0139,0.0315,0.0367,0.0522,0.0537,0.0184,0.0184,0.0185,0.0185,0,0.0906,0.0853,0.085,0.075,0.0699,0.0643,0.0572,0.0493,0.0433,0.0355,0.0317,0.0247,0.0251,0.0211,0.0188,0.0188,0.0171,0.0182,0.0211,0.0212,0.0358,0.0336,0.0488,0.0531,0.0191,0.019,0.019,0,0.0968,0.096,0.093,0.0897,0.0807,0.076,0.0674,0.0586,0.0515,0.0453,0.0373,0.0307,0.029,0.0265,0.0246,0.0226,0.0187,0.024,0.0241,0.0247,0.0163,0.0325,0.0336,0.0178,0.0176,0.0175,0.0194,0,0.1074,0.102,0.0988,0.0916,0.0869,0.0801,0.0743,0.068,0.0615,0.0574,0.0481,0.0455,0.0389,0.0368,0.036,0.0288,0.0305,0.0319,0.034,0.0294,0.0312,0.0308,0.0376,0.0377,0.0378,0.0379,0,0,0.1116,0.1074,0.1047,0.1003,0.0947,0.0893,0.0832,0.0786,0.0699,0.0656,0.0646,0.0533,0.0507,0.0426,0.04,0.0399,0.0399,0.0374,0.0321,0.0315,0.0309,0.0322,0.0317,0.0381,0.0382,0.0382,0.0383,0,0.1159,0.1103,0.1067,0.1028,0.0953,0.0916,0.0887,0.0812,0.076,0.069,0.0653,0.0599,0.0532,0.0499,0.0476,0.0419,0.042,0.0397,0.0345,0.0332,0.0323,0.0316,0.0328,0.0323,0.0385,0.0385,0.0385,0,0.1193,0.1154,0.1126,0.1059,0.1007,0.0954,0.093,0.0857,0.0802,0.0783,0.068,0.0653,0.0623,0.056,0.0526,0.0538,0.0451,0.0467,0.0461,0.0461,0.0449,0.0439,0.0431,0.0539,0.0539,0.0539,0,0,0.1213,0.1174,0.1116,0.1058,0.1029,0.0962,0.0921,0.0876,0.0819,0.0783,0.0732,0.068,0.0639,0.0601,0.0575,0.0522,0.0537,0.0483,0.0476,0.047,0.0465,0.0452,0.0443,0.054,0.054,0.054,0,0,0.122,0.1158,0.1128,0.106,0.1014,0.0956,0.0905,0.0865,0.0799,0.0766,0.0731,0.0716,0.0642,0.0639,0.0655,0.056,0.0594,0.059,0.0544,0.0535,0.0528,0.0527,0.0646,0,0,0,0,0,0.1217,0.1175,0.1149,0.1129,0.1025,0.0978,0.0964,0.0888,0.084,0.0815,0.0758,0.0741,0.0642,0.0656,0.0647,0.0591,0.0553,0.055,0.0548,0.0478,0.0469,0.0461,0,0,0,0,0,0,0.1209,0.1187,0.115,0.1092,0.1067,0.0979,0.094,0.092,0.0841,0.0829,0.0753,0.0741,0.0726,0.0659,0.0651,0.0598,0.0649,0.0552,0.055,0.0548,0.0475,0.0468,0.0461,0,0,0,0,0,0.1202,0.1184,0.1032,0.1092,0.107,0.0969,0.0939,0.0922,0.0851,0.0809,0.0792,0.0787,0.0729,0.0716,0.0654,0.0601,0.0654,0.0651,0.0551,0.0549,0.0548,0.0471,0,0,0,0,0,0,0.1197,0.1181,0.1026,0.1017,0.1075,0.0971,0.0952,0.0923,0.0833,0.0816,0.0847,0.084,0.0731,0.0721,0.0712,0.0602,0.0658,0.0655,0.0654,0.0549,0.0548,0.0547,0,0,0,0,0,0,0.1189,0.1174,0.1022,0.1005,0.0993,0.0973,0.0956,0.0933,0.0834,0.0878,0.0869,0.0845,0.074,0.0725,0.0717,0.0685,0.0662,0.0659,0.0657,0.0656,0.0549,0.0548,0,0,0,0,0,0,0.1181,0.1168,0.1007,0.0998,0.0988,0.0883,0.0952,0.0849,0.0816,0.0885,0.081,0.0807,0.0745,0.0736,0.0721,0.0693,0.0687,0.0662,0.066,0.0658,0.0657,0,0,0,0,0,0,0,0.1175,0.1278,0.1074,0.0993,0.0984,0.093,0.0928,0.0927,0.0815,0.0813,0.081,0.0808,0.0678,0.0675,0.0671,0.0699,0,0,0.0662,0.0661,0,0,0,0,0,0,0,0,0.1282,0.1279,0.1074,0.1072,0.1069,0.093,0.0928,0.0927,0.0815,0.0813,0.0811,0.0809,0.0677,0.0674,0.0672,0,0,0,0,0,0,0,0,0,0,0,0,0,0,0,0.1074,0.1072,0,0.093,0.0928,0.0927,0.0814,0.0813,0.0811,0.081,0.0676,0.0674,0.0672,0,0,0,0,0,0,0,0,0,0,0,0,0,0,0,0,0,0,0,0,0,0,0,0,0,0,0,0,0,0,0,0,0,0,0,0,0,0,0,0,0,0,0,0,0,0,0,0,0,0,0,0,0,0,0,0,0,0,0,0,0,0,0,0,0,0,0,0,0]}]],[[{"header":{"parameterUnit":"kt","parameterCategory":2,"dx":1,"dy":1,"la1":30.253999710083008,"la2":30.299108505249023,"lo1":-89.0895004272461,"lo2":-89.04439544677734,"nx":28,"ny":28,"refTime":"2022-10-05T21:00:00:Z","depth":"4","parameterNumber":2,"parameterNumberName":"U-component_of_CURRENTS"},"data":[-0.124,-0.1314,-0.1319,-0.1197,-0.1185,-0.1107,-0.1142,-0.1212,-0.1154,-0.1313,-0.1328,-0.1439,-0.1495,-0.1601,-0.1577,-0.1604,-0.1821,-0.1846,-0.1841,-0.2322,-0.2361,-0.2395,-0.2325,0,0,0,0,0,-0.1303,-0.1287,-0.1408,-0.1489,-0.1506,-0.1552,-0.1586,-0.163,-0.1707,-0.1493,-0.1686,-0.1588,-0.163,-0.1697,-0.1641,-0.184,-0.2099,-0.1769,-0.2171,-0.2346,-0.2389,-0.2306,0,0,0,0,0,0,-0.1397,-0.1433,-0.164,-0.1772,-0.1842,-0.1759,-0.1865,-0.173,-0.1749,-0.1934,-0.1786,-0.1951,-0.2039,-0.2029,-0.2015,-0.204,-0.2063,-0.2097,-0.2149,-0.2192,-0.2081,-0.1878,-0.1521,0,0,0,0,0,-0.1466,-0.1614,-0.1735,-0.1979,-0.2046,-0.2076,-0.2135,-0.2132,-0.2194,-0.2395,-0.2257,-0.2343,-0.2226,-0.234,-0.2299,-0.2313,-0.2854,-0.2602,-0.2627,-0.2729,-0.262,-0.2617,-0.2637,-0.255,-0.2555,-0.2559,-0.2561,0,-0.1522,-0.1654,-0.1983,-0.2077,-0.2202,-0.2387,-0.2412,-0.2595,-0.2529,-0.2722,-0.2631,-0.2753,-0.2806,-0.2644,-0.2795,-0.2836,-0.2719,-0.2711,-0.2819,-0.2689,-0.2673,-0.2684,-0.2692,-0.2595,-0.2592,-0.259,-0.2587,0,-0.1544,-0.1746,-0.1931,-0.2186,-0.2295,-0.2397,-0.2537,-0.2571,-0.2849,-0.2904,-0.3018,-0.3166,-0.3178,-0.331,-0.3343,-0.3248,-0.3196,-0.2983,-0.3256,-0.325,-0.2756,-0.2751,-0.2652,-0.2639,-0.2628,-0.262,-0.2612,0,-0.1623,-0.174,-0.1996,-0.209,-0.2266,-0.2321,-0.2492,-0.2649,-0.2832,-0.2885,-0.3225,-0.323,-0.3516,-0.3523,-0.354,-0.3321,-0.3539,-0.3103,-0.3073,-0.343,-0.3422,-0.333,-0.3309,-0.3509,-0.351,-0.351,-0.3511,0,-0.1581,-0.1793,-0.1924,-0.1989,-0.2193,-0.2236,-0.2352,-0.2539,-0.2621,-0.2986,-0.3096,-0.3364,-0.3472,-0.355,-0.3501,-0.3541,-0.3497,-0.3583,-0.3133,-0.3107,-0.3325,-0.3304,-0.3511,-0.3512,-0.3512,-0.3512,-0.3512,0,-0.1599,-0.1717,-0.1868,-0.2036,-0.2065,-0.2173,-0.2314,-0.2448,-0.2727,-0.2839,-0.3031,-0.3182,-0.3383,-0.3335,-0.3441,-0.3442,-0.3362,-0.3345,-0.3345,-0.2919,-0.2862,-0.3102,-0.3282,-0.3281,-0.328,-0.3279,-0.3278,0,-0.1568,-0.1728,-0.1741,-0.1912,-0.2022,-0.2057,-0.2205,-0.2301,-0.2457,-0.2697,-0.2821,-0.3057,-0.3029,-0.3161,-0.3225,-0.3283,-0.3282,-0.3259,-0.3195,-0.3189,-0.289,-0.2976,-0.3334,-0.3265,-0.3267,-0.3268,-0.3269,0,-0.1513,-0.1707,-0.1729,-0.1817,-0.1908,-0.1925,-0.2053,-0.2184,-0.2347,-0.2507,-0.2704,-0.2871,-0.2946,-0.2996,-0.3047,-0.3117,-0.3251,-0.3076,-0.3074,-0.3056,-0.3342,-0.2999,-0.2974,-0.3319,-0.3322,-0.3324,-0.3259,0,-0.16,-0.1692,-0.1721,-0.1826,-0.183,-0.1905,-0.1991,-0.2086,-0.2217,-0.233,-0.2505,-0.2602,-0.2748,-0.2811,-0.2826,-0.2976,-0.29,-0.2907,-0.2851,-0.298,-0.2925,-0.2934,-0.2763,-0.2758,-0.2754,-0.2751,0,0,-0.1576,-0.1633,-0.1632,-0.1686,-0.1722,-0.1808,-0.1852,-0.1961,-0.2078,-0.2134,-0.2185,-0.242,-0.2481,-0.2642,-0.2696,-0.2718,-0.2697,-0.2718,-0.2903,-0.2921,-0.2936,-0.2893,-0.2906,-0.2744,-0.2742,-0.2741,-0.274,0,-0.1578,-0.1597,-0.1617,-0.1669,-0.1717,-0.1771,-0.1809,-0.1892,-0.1954,-0.2108,-0.2133,-0.225,-0.2406,-0.2454,-0.2509,-0.2658,-0.2614,-0.2684,-0.2793,-0.287,-0.2893,-0.2912,-0.2875,-0.289,-0.273,-0.2731,-0.2731,0,-0.1574,-0.1588,-0.1601,-0.1635,-0.1681,-0.1759,-0.1762,-0.1805,-0.1898,-0.1908,-0.2086,-0.2128,-0.2176,-0.2302,-0.2361,-0.2331,-0.2528,-0.2489,-0.2507,-0.2444,-0.2514,-0.254,-0.2564,-0.2265,-0.2264,-0.2264,0,0,-0.1571,-0.1583,-0.1623,-0.1637,-0.1664,-0.1736,-0.1773,-0.1794,-0.1864,-0.1904,-0.1991,-0.206,-0.2139,-0.2207,-0.2228,-0.236,-0.2304,-0.2443,-0.2464,-0.2483,-0.2433,-0.2506,-0.2531,-0.2261,-0.2261,-0.2261,0,0,-0.1574,-0.1606,-0.1624,-0.1635,-0.1678,-0.1725,-0.1761,-0.1819,-0.1902,-0.1916,-0.1977,-0.1994,-0.2117,-0.2106,-0.2074,-0.226,-0.2153,-0.2161,-0.2328,-0.2355,-0.2376,-0.2309,-0.2044,0,0,0,0,0,-0.1596,-0.1597,-0.1613,-0.162,-0.1671,-0.1712,-0.1724,-0.1773,-0.1836,-0.186,-0.1937,-0.1937,-0.2079,-0.2051,-0.2068,-0.22,-0.2233,-0.2238,-0.2243,-0.2481,-0.2509,-0.2533,0,0,0,0,0,0,-0.1599,-0.1605,-0.1614,-0.1654,-0.1667,-0.1712,-0.1731,-0.1745,-0.1832,-0.184,-0.1925,-0.1936,-0.1934,-0.2044,-0.2058,-0.2185,-0.2039,-0.2235,-0.2239,-0.2243,-0.2491,-0.2514,-0.2534,0,0,0,0,0,-0.1602,-0.1606,-0.1669,-0.1656,-0.1667,-0.1732,-0.1732,-0.1744,-0.183,-0.185,-0.1867,-0.1873,-0.1932,-0.195,-0.2052,-0.218,-0.2028,-0.2034,-0.2238,-0.2241,-0.2244,-0.2502,0,0,0,0,0,0,-0.1604,-0.1624,-0.1673,-0.168,-0.1659,-0.1732,-0.1742,-0.1742,-0.1838,-0.1853,-0.1791,-0.1795,-0.1931,-0.1945,-0.1959,-0.218,-0.202,-0.2026,-0.2029,-0.224,-0.2243,-0.2245,0,0,0,0,0,0,-0.1622,-0.1629,-0.1677,-0.1677,-0.1685,-0.1732,-0.1741,-0.1795,-0.184,-0.1774,-0.178,-0.1792,-0.1922,-0.1942,-0.1952,-0.2035,-0.2014,-0.2019,-0.2023,-0.2025,-0.2242,-0.2244,0,0,0,0,0,0,-0.1627,-0.1633,-0.1676,-0.1682,-0.1688,-0.1768,-0.1784,-0.184,-0.1818,-0.177,-0.182,-0.1821,-0.1918,-0.193,-0.1948,-0.2025,-0.2033,-0.2014,-0.2018,-0.202,-0.2022,0,0,0,0,0,0,0,-0.163,-0.1571,-0.1633,-0.1685,-0.1691,-0.1743,-0.1745,-0.1747,-0.1819,-0.1819,-0.182,-0.1821,-0.1984,-0.1989,-0.1995,-0.2018,0,0,-0.2014,-0.2016,0,0,0,0,0,0,0,0,-0.157,-0.157,-0.1633,-0.1635,-0.1636,-0.1744,-0.1745,-0.1747,-0.1819,-0.1819,-0.182,-0.182,-0.1985,-0.199,-0.1995,0,0,0,0,0,0,0,0,0,0,0,0,0,0,0,-0.1633,-0.1635,0,-0.1744,-0.1745,-0.1746,-0.1819,-0.1819,-0.182,-0.182,-0.1986,-0.199,-0.1994,0,0,0,0,0,0,0,0,0,0,0,0,0,0,0,0,0,0,0,0,0,0,0,0,0,0,0,0,0,0,0,0,0,0,0,0,0,0,0,0,0,0,0,0,0,0,0,0,0,0,0,0,0,0,0,0,0,0,0,0,0,0,0,0,0,0,0,0,0]}],[{"header":{"parameterUnit":"kt","parameterCategory":2,"dx":1,"dy":1,"la1":30.253999710083008,"la2":30.299108505249023,"lo1":-89.0895004272461,"lo2":-89.04439544677734,"nx":28,"ny":28,"refTime":"2022-10-05T21:00:00:Z","depth":"4","parameterNumber":3,"parameterNumberName":"V-component_of_CURRENTS"},"data":[-0.0598,-0.0698,-0.0713,-0.0837,-0.0911,-0.1018,-0.1071,-0.1082,-0.1029,-0.104,-0.0813,-0.0727,-0.03,-0.0583,0.0121,0.021,0.0397,0.0755,0.0763,0.1011,0.1005,0.1,0.088,0,0,0,0,0,-0.0581,-0.06,-0.0756,-0.0898,-0.1048,-0.1095,-0.1204,-0.1223,-0.1225,-0.1125,-0.1133,-0.0855,-0.041,-0.0271,0.0096,0.0123,0.0598,0.0563,0.0769,0.1007,0.1001,0.0886,0,0,0,0,0,0,-0.0569,-0.0638,-0.0759,-0.0891,-0.1061,-0.113,-0.119,-0.1164,-0.1187,-0.1186,-0.1139,-0.0907,-0.079,-0.0325,0.005,0.0395,0.0533,0.0675,0.0686,0.0684,0.0546,0.0447,0.0534,0,0,0,0,0,-0.0525,-0.059,-0.0698,-0.0881,-0.0992,-0.1114,-0.1178,-0.1219,-0.1216,-0.1275,-0.1175,-0.0952,-0.0687,-0.0254,0.0064,0.0483,0.0739,0.0815,0.0816,0.0867,0.0824,0.086,0.0845,0.0977,0.0976,0.0975,0.0975,0,-0.0463,-0.0531,-0.0721,-0.0831,-0.0897,-0.1028,-0.1087,-0.1133,-0.1156,-0.1201,-0.1164,-0.1021,-0.0872,-0.0296,0.0052,0.0608,0.0645,0.0795,0.0847,0.0811,0.0854,0.0839,0.0825,0.097,0.097,0.0971,0.0971,0,-0.0435,-0.0507,-0.0637,-0.0764,-0.0821,-0.091,-0.1029,-0.1074,-0.1117,-0.1139,-0.1117,-0.1014,-0.0695,-0.0372,0.0046,0.0294,0.0646,0.0711,0.0546,0.0592,0.0823,0.0811,0.0961,0.0963,0.0965,0.0966,0.0967,0,-0.0412,-0.049,-0.0601,-0.0663,-0.0793,-0.0817,-0.0932,-0.0951,-0.0967,-0.0988,-0.0883,-0.0847,-0.0481,-0.0265,0.0068,0.0419,0.0415,0.064,0.0698,0.0585,0.0575,0.0595,0.0585,0.0663,0.0662,0.066,0.0659,0,-0.0362,-0.0472,-0.0569,-0.0605,-0.0692,-0.0745,-0.0762,-0.0794,-0.0826,-0.0786,-0.0803,-0.058,-0.0474,-0.0196,0.013,0.0157,0.045,0.0523,0.0648,0.0652,0.0583,0.0575,0.0657,0.0657,0.0657,0.0656,0.0656,0,-0.0321,-0.0399,-0.0514,-0.0592,-0.062,-0.0656,-0.0725,-0.0729,-0.0693,-0.0667,-0.0582,-0.0477,-0.0275,-0.0181,0.0153,0.0103,0.0256,0.0393,0.0404,0.0407,0.0463,0.0508,0.0553,0.0551,0.0549,0.0547,0.0546,0,-0.0234,-0.0359,-0.0388,-0.047,-0.0524,-0.0516,-0.0529,-0.0532,-0.0496,-0.0476,-0.0323,-0.0274,-0.0125,-0.0084,0.0042,0.0231,0.0309,0.0228,0.0424,0.043,0.045,0.0494,0.0329,0.0522,0.0525,0.0527,0.0529,0,-0.0171,-0.0264,-0.0276,-0.0314,-0.0347,-0.0389,-0.0392,-0.0395,-0.042,-0.0312,-0.0307,-0.015,-0.0087,-0.0042,0.0057,0.0151,0.0281,0.0218,0.0223,0.0308,0.0455,0.0466,0.0482,0.0322,0.0323,0.0324,0.0512,0,-0.0115,-0.0166,-0.0209,-0.0257,-0.0288,-0.0332,-0.0309,-0.0308,-0.0249,-0.0214,-0.0161,-0.0051,0.0007,0.0069,0.0133,0.0198,0.0224,0.0242,0.0264,0.0268,0.035,0.0363,0.0209,0.0208,0.0208,0.0208,0,0,-0.0001,-0.0085,-0.0105,-0.0166,-0.0191,-0.0149,-0.0201,-0.0174,-0.0157,-0.0155,-0.0091,0.0002,0.008,0.0131,0.0161,0.0181,0.0227,0.0188,0.0253,0.0257,0.0262,0.0341,0.0353,0.0208,0.0208,0.0208,0.0208,0,0.0012,-0.0024,-0.0087,-0.0109,-0.0143,-0.0129,-0.0138,-0.0142,-0.0116,-0.0098,-0.0033,0.0027,0.0085,0.0144,0.0183,0.0177,0.0247,0.0198,0.0175,0.0251,0.0256,0.026,0.0338,0.035,0.0208,0.0208,0.0208,0,0.008,0.0043,0.0013,-0.0042,-0.005,-0.0078,-0.0037,-0.0077,-0.0073,-0.0007,0.0017,0.007,0.0127,0.0164,0.0183,0.0191,0.0263,0.0226,0.0225,0.0193,0.0271,0.0276,0.028,0.0231,0.0231,0.0231,0,0,0.0099,0.0041,0.0021,-0.0036,-0.0049,-0.0038,-0.0049,-0.004,-0.0026,-0.0015,0.0036,0.0082,0.0129,0.0157,0.0183,0.0201,0.0235,0.023,0.0229,0.0228,0.0196,0.0272,0.0276,0.0232,0.0232,0.0232,0,0,0.012,0.007,0.0084,0.0006,-0.0002,-0.0008,-0.0034,-0.0008,0.0011,0.0017,0.0089,0.0104,0.0139,0.0156,0.0159,0.0219,0.022,0.022,0.0226,0.0224,0.0223,0.0183,0.0225,0,0,0,0,0,0.0137,0.0069,0.0082,0.0068,0.0015,-0.0021,-0.0023,0.0001,0.0034,0.002,0.0065,0.0112,0.0175,0.0178,0.0185,0.0222,0.0242,0.024,0.0238,0.0248,0.0247,0.0246,0,0,0,0,0,0,0.0131,0.0114,0.0084,0.0068,0.0057,-0.0019,0.0034,0.004,0.0036,0.0045,0.0099,0.0113,0.0155,0.0178,0.0184,0.0219,0.0223,0.0241,0.024,0.0238,0.0248,0.0247,0.0246,0,0,0,0,0,0.0127,0.0113,0.0016,0.0071,0.006,0.0074,0.0037,0.0042,0.0048,0.0094,0.0108,0.0068,0.0152,0.0163,0.0182,0.0216,0.0219,0.0221,0.024,0.0239,0.0238,0.0247,0,0,0,0,0,0,0.0124,0.0128,0.0015,0.0014,0.0097,0.008,0.0077,0.0044,0.01,0.011,0.0066,0.0072,0.015,0.0158,0.0166,0.0214,0.0216,0.0218,0.022,0.0239,0.0238,0.0237,0,0,0,0,0,0,0.0135,0.0126,0.0015,0.0046,0.0049,0.0086,0.0083,0.0093,0.0103,0.0071,0.0076,0.0068,0.0162,0.0155,0.0161,0.0175,0.0214,0.0216,0.0217,0.0218,0.0238,0.0238,0,0,0,0,0,0,0.0132,0.0124,0.0047,0.0049,0.0051,0.0042,0.0101,0.0061,0.0075,0.0071,0.0083,0.0086,0.0159,0.0165,0.0157,0.0168,0.0173,0.0214,0.0215,0.0216,0.0217,0,0,0,0,0,0,0,0.013,0.0171,0.0019,0.0051,0.0054,0.0001,0.0001,0.0001,0.0076,0.0079,0.0082,0.0085,0.0203,0.0205,0.0207,0.0162,0,0,0.0214,0.0215,0,0,0,0,0,0,0,0,0.0175,0.0172,0.0018,0.0018,0.0017,0.0001,0.0001,0.0001,0.0077,0.0079,0.0081,0.0084,0.0204,0.0206,0.0207,0,0,0,0,0,0,0,0,0,0,0,0,0,0,0,0.0018,0.0018,0,0.0001,0.0001,0.0001,0.0077,0.0079,0.0081,0.0083,0.0204,0.0206,0.0207,0,0,0,0,0,0,0,0,0,0,0,0,0,0,0,0,0,0,0,0,0,0,0,0,0,0,0,0,0,0,0,0,0,0,0,0,0,0,0,0,0,0,0,0,0,0,0,0,0,0,0,0,0,0,0,0,0,0,0,0,0,0,0,0,0,0,0,0,0]}]]]